TimeCDT,TemperatureF,Dew PointF,Humidity,Sea Level PressureIn,VisibilityMPH,Wind Direction,Wind SpeedMPH,Gust SpeedMPH,PrecipitationIn,Events,Conditions,WindDirDegrees,DateUTC
12:13 AM,36.3,28.4,73,29.86,10.0,NE,9.2,-,N/A,,Overcast,40,2013-04-11 05:13:00
12:33 AM,36.9,27.1,68,29.84,10.0,NE,10.4,-,N/A,,Overcast,50,2013-04-11 05:33:00
12:53 AM,37.0,26.6,66,29.84,10.0,ENE,10.4,-,N/A,,Overcast,60,2013-04-11 05:53:00
1:13 AM,36.5,27.5,70,29.83,10.0,NE,9.2,-,N/A,,Overcast,50,2013-04-11 06:13:00
1:33 AM,36.3,27.3,70,29.82,10.0,NE,11.5,-,N/A,,Overcast,50,2013-04-11 06:33:00
1:53 AM,36.5,26.6,67,29.80,10.0,ENE,18.4,23.0,N/A,Rain,Rain,60,2013-04-11 06:53:00
2:13 AM,36.0,26.8,69,29.78,10.0,ENE,17.3,-,N/A,Rain,Light Rain,60,2013-04-11 07:13:00
2:33 AM,36.5,25.5,64,29.77,10.0,ENE,13.8,-,N/A,,Overcast,60,2013-04-11 07:33:00
2:53 AM,36.5,24.4,62,29.76,10.0,ENE,19.6,24.2,N/A,,Drizzle,70,2013-04-11 07:53:00
3:13 AM,36.5,24.4,62,29.77,10.0,East,17.3,27.6,N/A,Rain,Light Rain,80,2013-04-11 08:13:00
3:33 AM,35.4,26.4,70,29.76,5.0,East,17.3,24.2,N/A,Snow,Light Snow,80,2013-04-11 08:33:00
3:53 AM,34.7,27.5,75,29.73,5.0,ENE,18.4,24.2,0.01,,Overcast,70,2013-04-11 08:53:00
4:13 AM,34.2,27.5,77,29.72,5.0,ENE,17.3,28.8,N/A,,Overcast,70,2013-04-11 09:13:00
4:33 AM,33.8,28.2,80,29.70,5.0,ENE,13.8,21.9,N/A,,Overcast,60,2013-04-11 09:33:00
4:53 AM,33.3,27.9,81,29.70,5.0,ENE,13.8,20.7,N/A,,Overcast,70,2013-04-11 09:53:00
5:13 AM,33.1,28.4,83,29.75,4.0,Calm,Calm,-,0.01,Snow,Light Snow,0,2013-04-11 10:13:00
5:32 AM,32.5,28.9,87,29.76,1.5,Calm,Calm,-,0.01,Snow,Light Snow,0,2013-04-11 10:32:00
5:53 AM,32.4,29.7,90,29.78,1.5,Calm,Calm,-,0.01,Snow,Light Snow,0,2013-04-11 10:53:00
6:13 AM,32.0,30.0,92,29.76,1.5,NNE,5.8,-,N/A,Snow,Light Snow,30,2013-04-11 11:13:00
6:32 AM,32.0,30.0,92,29.75,1.5,NNE,5.8,-,N/A,Snow,Light Snow,30,2013-04-11 11:32:00
6:53 AM,32.0,30.0,92,29.74,2.5,NE,5.8,-,N/A,Snow,Light Snow,40,2013-04-11 11:53:00
7:13 AM,32.0,30.0,92,29.73,2.5,NE,6.9,-,N/A,Snow,Light Snow,40,2013-04-11 12:13:00
7:32 AM,31.8,29.8,92,29.73,2.5,NE,9.2,-,N/A,Snow,Light Snow,40,2013-04-11 12:32:00
7:53 AM,32.0,29.8,92,29.73,4.0,NE,9.2,-,N/A,Snow,Light Snow,40,2013-04-11 12:53:00
8:13 AM,32.0,29.8,92,29.73,1.0,NE,10.4,-,N/A,Snow,Light Snow,50,2013-04-11 13:13:00
8:32 AM,32.0,30.0,92,29.72,1.0,NE,8.1,-,N/A,Snow,Light Snow,50,2013-04-11 13:32:00
8:53 AM,32.0,30.2,93,29.72,1.2,ENE,10.4,-,N/A,Snow,Light Snow,60,2013-04-11 13:53:00
9:13 AM,32.5,30.2,91,29.71,1.2,ENE,9.2,-,N/A,Snow,Light Snow,60,2013-04-11 14:13:00
9:32 AM,32.5,30.2,91,29.71,1.0,ENE,10.4,-,N/A,Snow,Light Snow,60,2013-04-11 14:32:00
9:53 AM,32.9,30.6,91,29.71,1.0,ENE,9.2,-,N/A,Snow,Light Snow,60,2013-04-11 14:53:00
10:13 AM,33.1,30.7,91,29.71,1.2,ENE,10.4,-,N/A,Snow,Light Snow,60,2013-04-11 15:13:00
10:32 AM,33.6,30.9,90,29.70,2.0,ENE,15.0,-,0.01,Snow,Light Snow,60,2013-04-11 15:32:00
10:53 AM,34.0,31.1,89,29.71,1.8,ENE,12.7,-,0.02,Snow,Light Snow,60,2013-04-11 15:53:00
11:13 AM,34.2,31.1,89,29.71,1.8,ENE,11.5,-,0.06,,Overcast,60,2013-04-11 16:13:00
11:33 AM,34.7,31.3,87,29.72,4.0,ENE,12.7,-,0.15,,Overcast,70,2013-04-11 16:33:00
12:13 PM,35.2,31.5,86,29.70,5.0,ENE,12.7,-,N/A,,Overcast,70,2013-04-11 17:13:00
12:33 PM,35.6,31.6,85,29.69,5.0,ENE,11.5,-,N/A,,Haze,70,2013-04-11 17:33:00
12:53 PM,35.6,31.6,85,29.68,10.0,ENE,15.0,18.4,N/A,,Overcast,70,2013-04-11 17:53:00
1:13 PM,35.8,31.6,85,29.66,10.0,ENE,15.0,-,N/A,,Overcast,70,2013-04-11 18:13:00
1:33 PM,35.8,31.5,84,29.65,5.0,ENE,16.1,-,N/A,,Haze,70,2013-04-11 18:33:00
1:53 PM,35.6,31.8,86,29.64,4.0,ENE,12.7,-,N/A,,Overcast,70,2013-04-11 18:53:00
2:13 PM,35.8,32.0,86,29.66,5.0,East,11.5,-,N/A,,Overcast,80,2013-04-11 19:13:00
2:33 PM,35.6,32.0,87,29.66,4.0,ENE,12.7,-,N/A,,Light Drizzle,70,2013-04-11 19:33:00
2:53 PM,35.6,32.0,87,29.66,4.0,East,12.7,18.4,N/A,,Overcast,80,2013-04-11 19:53:00
3:13 PM,35.6,32.0,87,29.65,4.0,ENE,11.5,-,N/A,Rain,Light Rain,70,2013-04-11 20:13:00
3:33 PM,35.6,32.0,87,29.65,2.0,East,12.7,-,N/A,Rain,Light Rain,80,2013-04-11 20:33:00
3:52 PM,35.6,32.0,87,29.64,2.0,ENE,10.4,-,N/A,,Overcast,70,2013-04-11 20:52:00
4:13 PM,35.1,32.0,89,29.65,2.0,ENE,11.5,-,N/A,Rain,Light Rain,70,2013-04-11 21:13:00
4:33 PM,35.1,32.0,89,29.64,2.0,ENE,13.8,-,N/A,Rain,Light Rain,70,2013-04-11 21:33:00
4:53 PM,35.1,32.0,89,29.64,2.0,ENE,12.7,-,N/A,Rain,Light Rain,70,2013-04-11 21:53:00
5:13 PM,35.2,32.0,88,29.65,3.0,ENE,13.8,19.6,N/A,Rain,Light Rain,70,2013-04-11 22:13:00
5:33 PM,34.7,32.0,90,29.65,3.0,ENE,13.8,-,0.01,Snow,Light Snow,70,2013-04-11 22:33:00
5:53 PM,34.2,31.8,91,29.65,1.0,ENE,11.5,-,0.02,Snow,Light Snow,60,2013-04-11 22:53:00
6:13 PM,34.2,32.0,92,29.65,2.5,ENE,9.2,-,N/A,Snow,Light Snow,60,2013-04-11 23:13:00
6:33 PM,34.0,32.0,92,29.65,2.0,ENE,15.0,-,N/A,Snow,Light Snow,70,2013-04-11 23:33:00
6:53 PM,33.8,31.8,92,29.64,0.8,NE,9.2,-,N/A,Snow,Light Snow,50,2013-04-11 23:53:00
7:13 PM,33.4,31.8,94,29.63,1.2,NE,15.0,-,N/A,Snow,Light Snow,50,2013-04-12 00:13:00
7:33 PM,33.4,31.6,93,29.63,1.5,NE,11.5,-,0.01,Snow,Light Snow,50,2013-04-12 00:33:00
7:53 PM,33.3,31.5,93,29.64,0.8,ENE,12.7,-,0.01,Snow,Light Snow,60,2013-04-12 00:53:00
8:13 PM,33.1,31.3,93,29.64,2.0,ENE,11.5,-,N/A,Snow,Light Snow,60,2013-04-12 01:13:00
8:33 PM,33.1,31.1,92,29.64,1.8,NE,10.4,-,N/A,Snow,Light Snow,50,2013-04-12 01:33:00
8:53 PM,32.7,30.7,92,29.64,2.5,NE,13.8,-,N/A,Snow,Light Snow,50,2013-04-12 01:53:00
9:13 PM,32.5,30.6,92,29.64,1.5,ENE,15.0,-,N/A,Snow,Light Snow,60,2013-04-12 02:13:00
9:33 PM,32.5,30.6,92,29.65,2.5,NE,9.2,-,N/A,Snow,Light Snow,50,2013-04-12 02:33:00
9:53 PM,32.2,30.2,92,29.65,1.8,NE,12.7,-,N/A,Snow,Light Snow,50,2013-04-12 02:53:00
10:13 PM,32.0,30.0,92,29.65,1.8,NE,13.8,-,N/A,Snow,Light Snow,50,2013-04-12 03:13:00
10:33 PM,32.0,30.2,93,29.65,2.5,NE,10.4,-,N/A,Snow,Light Snow,40,2013-04-12 03:33:00
10:53 PM,32.0,29.8,92,29.64,4.0,NE,11.5,-,N/A,Snow,Light Snow,40,2013-04-12 03:53:00
11:13 PM,32.0,29.7,91,29.64,4.0,NNE,13.8,-,N/A,Snow,Light Snow,30,2013-04-12 04:13:00
11:33 PM,31.6,29.3,91,29.64,5.0,NE,10.4,-,N/A,Snow,Light Snow,40,2013-04-12 04:33:00
11:53 PM,31.6,29.3,91,29.64,7.0,NE,10.4,-,N/A,Snow,Light Snow,40,2013-04-12 04:53:00